Orbital Elements at Epoch 2459200.5 (2020-Dec-17.0) TDB
Reference: JPL 17 (heliocentric ecliptic J2000)
Element | Value | Uncertainty (1-sigma) | Units |
e | .2387538755435966 | 5.2737e-08 | |
a | 3.192798230355703 | 2.8777e-08 | au |
q | 2.430505279029542 | 1.7804e-07 | au |
i | 9.300687891807753 | 4.0406e-06 | deg |
node | 151.7168032444526 | 3.3367e-05 | deg |
peri | 258.2517411023052 | 3.4076e-05 | deg |
M | 252.5649918508419 | 1.0381e-05 | deg |
tp | 2459822.369072189042 (2022-Aug-30.86907219) | 6.5874e-05 | TDB |
period | 2083.798101241261 5.71 | 2.8172e-05 7.713e-08 | d yr |
n | .1727614588887272 | 2.3357e-09 | deg/d |
Q | 3.955091181681864 | 3.5647e-08 | au |
|
| | Orbit Determination Parameters
Additional Information
|